Regional Weather Roundup
Issued by NWS Charleston, SC

Current Version | Previous Version | Text Only | Print | Product List | Glossary Off
Versions: 1 2 3 4 5 6 7 8 9 10 11 12 13 14 15 16 17 18 19 20 21 22 23 24 25 26 27 28 29 30 31 32 33 34 35 36 37 38 39 40 41 42 43 44 45 46 47 48 49 50
090 ASUS42 KCHS 200827 RWRCHS REGIONAL WEATHER ROUNDUP NATIONAL WEATHER SERVICE CHARLESTON SC 400 AM EDT THU JUL 20 2017 NOTE: "FAIR" INDICATES FEW OR NO CLOUDS BELOW 12,000 FEET WITH NO SIGNIFICANT WEATHER AND/OR OBSTRUCTIONS TO VISIBILITY. NOT ALL STATIONS ARE QUALITY CONTROLLED. USE DATA WITH CAUTION... ESPECIALLY DEWPOINT OBSERVATIONS. SCZ027-030-031-034>040-042>050-200900- ...SOUTHEAST SOUTH CAROLINA... CITY SKY/WX TMP DP RH WIND PRES REMARKS N CHARLESTON CLEAR 71 70 96 CALM 30.06F WATERFRONT PRK N/A 76 74 93 CALM 30.05F JOHNS ISLAND FAIR 73 72 94 CALM 30.06S PINOPOLIS N/A 75 73 94 SW6 29.99F MONCKS CORNER FAIR 68 68 100 CALM 30.06F SUMMERVILLE FAIR 70 68 94 CALM 30.08S BEAUFORT MCAS CLEAR 75 75 100 CALM 30.07S BEAUFORT ARPT FAIR 77 73 88 CALM 30.06F HILTON HEAD IS CLEAR 77 77 100 CALM 30.07F WALTERBORO SUNNY 70 68 94 CALM 30.07F ALLENDALE N/A N/A N/A N/A MISG N/A ...SOUTHERN MIDLANDS AND PEE DEE... CITY SKY/WX TMP DP RH WIND PRES REMARKS GEORGETOWN NOT AVBL KINGSTREE FAIR 68 66 94 CALM 30.06F FOG ORANGEBURG CLEAR 71 69 93 CALM 30.07F BARNWELL FAIR 73 72 94 CALM 30.07S AIKEN FAIR 72 70 94 CALM 30.10S MANNING FAIR 68 68 100 CALM 30.07S COLUMBIA CLEAR 73 69 87 CALM 30.06F SUMTER CLEAR 71 68 92 CALM 30.04F FLORENCE CLEAR 72 70 93 W3 30.06F MYRTLE BEACH CLEAR 71 69 93 NW5 30.08F N MYRTLE BEACH CLEAR 71 68 90 W3 30.06F $$ GAZ063-065-086>088-099>101-113>116-118-119-134>141-150-200900- ...SOUTHEAST GEORGIA... CITY SKY/WX TMP DP RH WIND PRES REMARKS SAVANNAH ARPT CLEAR 74 72 93 CALM 30.07F HUNTER AAF CLEAR 74 73 97 CALM 30.04F FORT STEWART CLEAR 72 70 94 CALM 30.05F STATESBORO CLEAR 74 74 100 CALM 30.07F SYLVANIA SUNNY 73 73 100 CALM 30.07F CLAXTON FAIR 72 72 98 CALM 30.07F ...CSRA...CENTRAL AND FAR SOUTHEAST GEORGIA... CITY SKY/WX TMP DP RH WIND PRES REMARKS THOMSON CLEAR 74 72 92 SW3 30.12S AUGUSTA-BUSH CLEAR 75 73 93 CALM N/A AUGUSTA-DANIEL CLEAR 76 71 85 S5 30.07F SWAINSBORO FAIR 73 73 100 CALM 30.08S VIDALIA CLEAR 73 72 94 S3 30.08S EASTMAN FAIR 75 75 100 CALM 30.10S HAZLEHURST FAIR 75 75 100 S3 30.07S ALMA PTCLDY 74 71 91 CALM 30.08S WAYCROSS CLEAR 75 75 100 CALM 30.08S JESUP N/A 73 70 88 CALM 30.08S BAXLEY FAIR 73 73 100 CALM 30.07F BRUNSWICK FOG 75 75 100 CALM 30.08R VSB 1/4 SAINT SIMONS CLEAR 80 78 94 CALM 30.07F $$ SCZ027-028-034-036>038-045-046-048>050-GAZ119-141-200900- ...LAKE AND SUPPLEMENTAL COASTAL OBSERVATIONS... STATION/POSITION TIME TEMP WIND PRES WAVE SWELL AIR SEA DIR/SP/G HT/PER HT/PER/DIR (UTC) (F) (DEG/KT/KT) (MB) (FT/S) (FT/S/D) WINYAH BAY 0745 72 300/ 5 1018.0F LAKE MURRAY 0820 78 270/ 3/ 5 1016.9 ACE BASIN NERRS 0745 74 CALM 1018.0F FORT PULASKI 0800 79 85 270/ 4/ 5 1018.4 SAPELO ISLAND 0800 80 CALM 1018.0 $$ ANZ835-935-AMZ111-154-330-350-352-354-370-450-454-472-200900- ...C-MAN AND BUOY OBSERVATIONS... STATION/POSITION TIME TEMP WIND PRES WAVE SWELL AIR SEA DIR/SP/G HT/PER HT/PER/DIR (UTC) (F) (DEG/KT/KT) (MB) (FT/S) (FT/S/D) BUOY 41004 0810 81 83 240/ 10/ 12 1017.5 BUOY 41008 0750 81 81 210/ 8/ 10 1017.7F 2/ 8 2/ 70/ 8 FOLLY BEACH CMAN 0800 79 250/ 3/ 4 1018.5F CAPERS NEARSHORE 0808 78 83 290/ 6/ 8 1017.8F FRIPP NEARSHORE 0808 82 83 230/ 10/ 14 1017.4F STATION/POSITION TIME TEMP WIND PRES WAVE SWELL AIR SEA DIR/SP/G HT/PER HT/PER/DIR (UTC) (F) (DEG/KT/KT) (MB) (FT/S) (FT/S/D) 5E ST. MARYS GA 0800 81 N/A 2/ 8 FRYING PAN BUOY 0810 81 83 280/ 14/ 19 1017.0 BUOY 41025 0750 81 84 300/ 8/ 10 1017.1F 2/ 7 2/140/ 7 CAPE LOOKOUT NC 0800 78 280/ 2/ 2 1016.8F BUOY 41002 0750 80 83 280/ 10/ 12 1018.1F 4/ 7 3/120/ 7 BUOY 41010 0810 80 85 240/ 14/ 21 1017.5 ST AUGUSTINE FL 0800 77 81 260/ 3/ 4 1018.4F $$

USA.gov is the U.S. government's official web portal to all federal, state and local government web resources and services.